Regional Weather Roundup
Issued by NWS Portland, ME

Home | Current Version | Previous Version | Text Only | Print | Product List | Glossary On
Versions: 1 2 3 4 5 6 7 8 9 10 11 12 13 14 15 16 17 18 19 20 21 22 23 24 25 26 27 28 29 30 31 32 33 34 35 36 37 38 39 40 41 42 43 44 45 46 47 48 49 50
000
ASUS41 KGYX 110710
RWRGYX
WEATHER ROUNDUP FOR MAINE AND NEW HAMPSHIRE
NATIONAL WEATHER SERVICE GRAY ME
300 AM EDT FRI JUL 11 2014

MEZ002-005-006-010-012-015-018-020-021-024-026-027-029-110800-
MAINE

CITY           SKY/WX    TMP DP  RH WIND       PRES   REMARKS
PORTLAND       PTCLDY    59  51  75 CALM      30.18R
SANFORD        PTCLDY    54  48  82 CALM      30.18S
BAR HARBOR     MOCLDY    55  54  94 CALM      30.16S
WISCASSET      MOCLDY    56  53  90 CALM      30.19R
ROCKLAND       MOCLDY    55  54  94 CALM      30.15S
FRYEBURG       PTCLDY    50  48  93 CALM      30.20S
LEWISTONAUBURN CLEAR     54  50  87 CALM      30.19S
AUGUSTA        CLEAR     58  50  75 CALM      30.18S
WATERVILLE     CLEAR     54  48  82 CALM      30.14S
BANGOR         MOCLDY    54  51  90 CALM      30.17S
GREENVILLE       N/A     54  49  83 NW5       30.17R
MILLINOCKET    CLEAR     53  50  89 CALM      30.18R
HOULTON        CLEAR     46  45  96 CALM      30.14R
PRESQUE ISLE   CLEAR     50  45  81 CALM      30.15R
FRENCHVILLE    PTCLDY    50  47  89 W5        30.14R
CARIBOU        CLEAR     51  49  92 CALM      30.13S
$$

NHZ002-005-008-009-011-012-014-110800-
NEW HAMPSHIRE

CITY           SKY/WX    TMP DP  RH WIND       PRES   REMARKS
PORTSMOUTH     MOCLDY    61  57  86 N6        30.16S
ROCHESTER      PTCLDY    57  54  89 NW5       30.18R
NASHUA         MOCLDY    62  58  87 NW3       30.18R
MANCHESTER     MOCLDY    64  56  75 N5        30.16S
CONCORD        PTCLDY    58  55  90 N3        30.18S
LACONIA        CLEAR     54  50  87 CALM      30.19R
PLYMOUTH       FAIR      50  49  96 CALM      30.21R
BERLIN         MOCLDY    45  42  89 CALM      30.22S
WHITEFIELD     CLEAR     46  43  89 CALM      30.22S
JAFFREY        MOCLDY    56  53  90 CALM      30.20F
LEBANON        CLEAR     53  51  93 CALM      30.21R
MT WASHINGTON  PTCLDY    41  36  81 W25         N/A
$$

VTZ005-007-008-110800-
VERMONT

CITY           SKY/WX    TMP DP  RH WIND       PRES   REMARKS
ST JOHNSBURY     N/A     51  49  92 MISG      30.21S
MONTPELIER     MOCLDY    52  50  93 CALM      30.26S
BURLINGTON     CLEAR     55  51  86 E3        30.21S
$$

MAZ007-012-024-CTZ003-RIZ002-NYZ038-NYZ072-110800-
SOUTHERN NEW ENGLAND AND NY

CITY           SKY/WX    TMP DP  RH WIND       PRES   REMARKS
BOSTON         CLOUDY    69  60  73 N3        30.14S
WORCESTER      CLOUDY    67  49  52 N7        30.18S
NANTUCKET      CLOUDY    68  66  94 N3        30.14S FOG
PROVIDENCE     CLOUDY    68  63  84 NW5       30.14S
HARTFORD       CLOUDY    65  55  70 NW6       30.15S
ALBANY         MOCLDY    59  53  80 CALM      30.19S
NEW YORK CITY  CLOUDY    72  61  68 NE3       30.12F
$$

ANZ081-ANZ082-ANZ150-NHZ014-MEZ023>029-110800-
COASTAL MARINE OBSERVATIONS

STATION/POSITION TIME  TEMP    WIND        PRES    WAVE
                       AIR SEA DIR/SP/G            HT/PER
                 (UTC) (F)     (DEG/KT/KT) (MB)    (FT/S)
MOUNT DESERT ROC 0700   61                 1020.8R
MATINICUS ROCK   0600           20/ 10/ 11 1020.8R
PORTLAND WX BUOY 0700   59 57   20/  2/  4 1021.8R   2/ 8
WELLS            0700   58 49  340/  1/  3 1021.0R
ISLE OF SHOALS   0600   68      20/ 10/ 11 1020.9R
JEFFREYS LEDGE   0600      66                N/A     2/ 8
CASHES LEDGE BUO 0700   64 62  350/  4/  6 1020.7R   3/ 8
$$

.............KEY..............
   WCI - WIND CHILL
   TC  - TEMPERATURE IN CELSIUS
   VSB - VISIBILITY IN MILES
   HX  - HEAT INDEX
   FAIR- INDICATES FEW OR NO CLOUDS BELOW 12,000 FT, WITH NO
         SIGNIFICANT WEATHER AND/OR OBSTRUCTIONS TO VISIBILITY.




USA.gov is the U.S. government's official web portal to all federal, state and local government web resources and services.